When you browse on this site, cookies collect data to enhance your experience and personalize the content and advertising you see.
Visit our Privacy Policy to learn more. By continuing to use the site, you agree to this use of cookies and data.

Hourly Weather Gomel

Today, 7 August, Friday

Time Temperature Precipitation Wind Pressure Humidity
00:00 +20°C° 0 mm 3 mps 756 mmHg 90%
01:00 +19°C° 0 mm 3 mps 757 mmHg 89%
02:00 +19°C° 0 mm 2 mps 757 mmHg 90%
03:00 +18°C° 0 mm 3 mps 757 mmHg 90%
04:00 +18°C° 0 mm 3 mps 757 mmHg 91%
05:00 +18°C° 0 mm 3 mps 757 mmHg 91%
06:00 +19°C° 0 mm 3 mps 757 mmHg 86%
07:00 +20°C° 0 mm 3 mps 757 mmHg 80%
08:00 +22°C° 0 mm 3 mps 757 mmHg 75%
09:00 +24°C° 0 mm 3 mps 757 mmHg 69%
10:00 +25°C° 0 mm 4 mps 757 mmHg 63%
11:00 +27°C° 0 mm 4 mps 757 mmHg 57%
12:00 +27°C° 0 mm 4 mps 757 mmHg 57%
13:00 +27°C° 0 mm 4 mps 757 mmHg 56%
14:00 +28°C° 0 mm 4 mps 757 mmHg 56%
15:00 +28°C° 0 mm 4 mps 757 mmHg 58%
16:00 +27°C° 0 mm 4 mps 757 mmHg 61%
17:00 +27°C° 0 mm 4 mps 756 mmHg 63%
18:00 +25°C° 0 mm 3 mps 756 mmHg 69%
19:00 +24°C° 0 mm 3 mps 756 mmHg 76%
20:00 +21°C° 0 mm 3 mps 756 mmHg 82%
21:00 +20°C° 0 mm 3 mps 757 mmHg 85%
22:00 +20°C° 0 mm 3 mps 757 mmHg 88%
23:00 +19°C° 0 mm 2 mps 757 mmHg 91%

Tomorrow, 8 August, Saturday

Time Temperature Precipitation Wind Pressure Humidity
00:00 +19°C° 0 mm 2 mps 757 mmHg 92%
01:00 +18°C° 0 mm 2 mps 757 mmHg 93%
02:00 +18°C° 0 mm 2 mps 757 mmHg 94%
03:00 +17°C° 0 mm 2 mps 756 mmHg 94%
04:00 +17°C° 0 mm 2 mps 756 mmHg 94%
05:00 +17°C° 0 mm 2 mps 756 mmHg 94%
06:00 +19°C° 0 mm 2 mps 756 mmHg 88%
07:00 +20°C° 0 mm 2 mps 756 mmHg 81%
08:00 +23°C° 0 mm 2 mps 756 mmHg 75%
09:00 +24°C° 0.1 mm 2 mps 756 mmHg 72%
10:00 +24°C° 0.1 mm 3 mps 756 mmHg 69%
11:00 +25°C° 0.1 mm 3 mps 756 mmHg 67%
12:00 +26°C° 0 mm 3 mps 756 mmHg 63%
13:00 +26°C° 0 mm 3 mps 755 mmHg 60%
14:00 +27°C° 0 mm 3 mps 755 mmHg 57%
15:00 +27°C° 0 mm 3 mps 754 mmHg 59%
16:00 +26°C° 0 mm 3 mps 754 mmHg 61%
17:00 +26°C° 0 mm 3 mps 754 mmHg 63%
18:00 +25°C° 0 mm 2 mps 754 mmHg 69%
19:00 +23°C° 0 mm 2 mps 754 mmHg 75%
20:00 +20°C° 0 mm 2 mps 754 mmHg 82%
21:00 +20°C° 0 mm 2 mps 754 mmHg 84%
22:00 +19°C° 0 mm 2 mps 754 mmHg 87%
23:00 +18°C° 0 mm 2 mps 754 mmHg 90%

Day after tomorrow, 9 August, Sunday

Time Temperature Precipitation Wind Pressure Humidity
00:00 +18°C° 0 mm 2 mps 754 mmHg 91%
01:00 +18°C° 0 mm 2 mps 753 mmHg 92%
02:00 +17°C° 0 mm 2 mps 753 mmHg 93%
03:00 +17°C° 0 mm 2 mps 753 mmHg 93%
04:00 +17°C° 0 mm 2 mps 753 mmHg 93%
05:00 +18°C° 0 mm 1 mps 753 mmHg 94%
06:00 +18°C° 0 mm 2 mps 753 mmHg 88%
07:00 +20°C° 0 mm 2 mps 753 mmHg 82%
08:00 +23°C° 0 mm 2 mps 753 mmHg 76%
09:00 +24°C° 0.2 mm 2 mps 753 mmHg 71%
10:00 +25°C° 0.2 mm 2 mps 753 mmHg 65%
11:00 +26°C° 0.2 mm 2 mps 753 mmHg 60%
12:00 +27°C° 0.2 mm 2 mps 752 mmHg 59%
13:00 +27°C° 0.2 mm 3 mps 752 mmHg 57%
14:00 +27°C° 0.2 mm 3 mps 752 mmHg 56%
15:00 +27°C° 0.2 mm 3 mps 752 mmHg 59%
16:00 +26°C° 0.2 mm 3 mps 751 mmHg 62%
17:00 +26°C° 0.2 mm 3 mps 751 mmHg 65%
18:00 +24°C° 0.1 mm 3 mps 751 mmHg 71%
19:00 +23°C° 0.1 mm 2 mps 751 mmHg 77%
20:00 +20°C° 0.1 mm 2 mps 751 mmHg 84%
21:00 +19°C° 0.1 mm 2 mps 751 mmHg 85%
22:00 +19°C° 0.1 mm 2 mps 751 mmHg 87%
23:00 +18°C° 0.1 mm 2 mps 752 mmHg 89%

10 August, Monday

Time Temperature Precipitation Wind Pressure Humidity
00:00 +18°C° 0 mm 2 mps 751 mmHg 89%
01:00 +18°C° 0 mm 2 mps 751 mmHg 89%
02:00 +18°C° 0 mm 2 mps 751 mmHg 89%
03:00 +18°C° 0 mm 2 mps 751 mmHg 90%
04:00 +18°C° 0 mm 2 mps 751 mmHg 90%
05:00 +18°C° 0 mm 2 mps 751 mmHg 91%
06:00 +19°C° 0 mm 2 mps 751 mmHg 86%
07:00 +20°C° 0 mm 2 mps 751 mmHg 81%
08:00 +23°C° 0 mm 2 mps 751 mmHg 76%
09:00 +24°C° 0.2 mm 2 mps 751 mmHg 70%
10:00 +25°C° 0.2 mm 2 mps 752 mmHg 65%
11:00 +26°C° 0.2 mm 1 mps 752 mmHg 60%
12:00 +27°C° 0 mm 1 mps 751 mmHg 56%
13:00 +28°C° 0 mm 1 mps 751 mmHg 53%
14:00 +28°C° 0 mm 1 mps 751 mmHg 49%
15:00 +28°C° 0.1 mm 2 mps 751 mmHg 53%
16:00 +28°C° 0.1 mm 2 mps 751 mmHg 57%
17:00 +27°C° 0.1 mm 2 mps 750 mmHg 60%
18:00 +25°C° 0 mm 2 mps 750 mmHg 67%
19:00 +24°C° 0 mm 2 mps 750 mmHg 73%
20:00 +21°C° 0 mm 2 mps 750 mmHg 80%
21:00 +20°C° 0.1 mm 2 mps 750 mmHg 82%
22:00 +21°C° 0.1 mm 1 mps 751 mmHg 84%
23:00 +20°C° 0.1 mm 1 mps 751 mmHg 87%

11 August, Tuesday

Time Temperature Precipitation Wind Pressure Humidity
00:00 +20°C° 0 mm 1 mps 751 mmHg 88%
01:00 +19°C° 0 mm 1 mps 751 mmHg 89%
02:00 +19°C° 0 mm 1 mps 751 mmHg 90%
03:00 +19°C° 0 mm 1 mps 750 mmHg 91%
04:00 +18°C° 0 mm 2 mps 750 mmHg 91%
05:00 +17°C° 0 mm 2 mps 750 mmHg 92%
06:00 +19°C° 0 mm 2 mps 750 mmHg 86%
07:00 +21°C° 0 mm 2 mps 750 mmHg 81%
08:00 +23°C° 0 mm 2 mps 750 mmHg 75%
09:00 +24°C° 0.6 mm 2 mps 750 mmHg 70%
10:00 +26°C° 0.6 mm 2 mps 750 mmHg 66%
11:00 +27°C° 0.6 mm 2 mps 750 mmHg 62%
12:00 +27°C° 0.5 mm 2 mps 750 mmHg 60%
13:00 +27°C° 0.5 mm 3 mps 750 mmHg 59%
14:00 +27°C° 0.5 mm 3 mps 749 mmHg 58%
15:00 +27°C° 0.2 mm 3 mps 749 mmHg 62%
16:00 +26°C° 0.2 mm 3 mps 749 mmHg 66%
17:00 +25°C° 0.2 mm 3 mps 749 mmHg 70%
18:00 +24°C° 0.2 mm 3 mps 749 mmHg 75%
19:00 +21°C° 0.2 mm 3 mps 749 mmHg 80%
20:00 +19°C° 0.2 mm 3 mps 750 mmHg 85%
21:00 +18°C° 0 mm 3 mps 750 mmHg 86%
22:00 +17°C° 0 mm 3 mps 750 mmHg 87%
23:00 +16°C° 0 mm 3 mps 750 mmHg 88%

12 August, Wednesday

Time Temperature Precipitation Wind Pressure Humidity
00:00 +14°C° 0 mm 3 mps 750 mmHg 88%
01:00 +13°C° 0 mm 3 mps 750 mmHg 89%
02:00 +12°C° 0 mm 3 mps 750 mmHg 90%
03:00 +12°C° 0 mm 3 mps 750 mmHg 91%
04:00 +12°C° 0 mm 3 mps 750 mmHg 93%
05:00 +11°C° 0 mm 3 mps 750 mmHg 94%
06:00 +12°C° 0 mm 3 mps 751 mmHg 92%
07:00 +13°C° 0 mm 4 mps 751 mmHg 89%
08:00 +15°C° 0 mm 4 mps 751 mmHg 86%
09:00 +15°C° 0 mm 4 mps 751 mmHg 83%
10:00 +17°C° 0 mm 4 mps 751 mmHg 79%
11:00 +17°C° 0 mm 4 mps 751 mmHg 76%
12:00 +17°C° 0 mm 5 mps 751 mmHg 72%
13:00 +19°C° 0 mm 5 mps 751 mmHg 67%
14:00 +20°C° 0 mm 5 mps 751 mmHg 63%
15:00 +19°C° 0 mm 5 mps 751 mmHg 65%
16:00 +19°C° 0 mm 5 mps 751 mmHg 66%
17:00 +17°C° 0 mm 5 mps 751 mmHg 68%
18:00 +17°C° 0 mm 4 mps 751 mmHg 73%
19:00 +14°C° 0 mm 4 mps 752 mmHg 79%
20:00 +13°C° 0 mm 3 mps 752 mmHg 84%
21:00 +12°C° 0 mm 3 mps 752 mmHg 86%
22:00 +12°C° 0 mm 3 mps 752 mmHg 89%
23:00 +11°C° 0 mm 3 mps 752 mmHg 91%
Show more